SIRIUS 2

导读

SIRIUS 2是美国于2000年9月5日发射的通信卫星,隶属天狼星卫星广播系统,专为北美地区提供数字音频广播服务。它部署在地球静止轨道,凭借强大的信号覆盖能力,可向车载、便携终端传输百余个高清电台节目,大幅提升了卫星广播的信号稳定性与音质,推动了卫星音频产业商业化发展,在卫星通信广播领域具有标志性意义。

基本信息
目录编号:
26483
目录名称:
SIRIUS 2
国际标识:
2000-051A
轨道中心:
EARTH
卫星名称:
SIRIUS 2
卫星全名:
--
卫星状态:
在轨 (已飞行9502 天)
发射日期:
2000-09-05 UTC
国别 :
美国 (US)
星等 :
--
该卫星已列入 空间交会检测服务 Space Conjunction Data Service (SCDS) ,当前飞行风险评估等级: 无高风险
轨道信息
数据来源 国际轨道数据 AOE轨道数据
星历时间 2026-09-06T16:43:53+0800
4天前
查看轨道信息
2026-09-06T12:00:00+0800
5天前
查看轨道信息
半长轴 30253.678km 30253.69km
偏心率 0.0209971 0.0209931
轨道倾角 67.177° 67.176°
近地点辐角 246.461° 246.454°
升交点赤经 41.459° 41.462°
平近点角 111.884° 354.802°
近地点 23240.301km 23240.434km
远地点 24510.781km 24510.672km
周期 872.825分钟 872.825分钟
每日圈数 1.649816 1.649815
详细信息
使用方式:
暂无
2D轨道图
3D轨道图
轨道高度分析图
轨道倾角分析图
轨道综合分析图
查看轨道综合分析图
与全量物体交会距离演化趋势
与全量物体交会风险概率演化趋势